Location: Fort Worth, Tx
(32.7431°N, 97.3695°W)
Time: 05:40:07
(UTC-05:00)

Altair - Pass Details

Date: 10 October 2023
Orbit: 1501 x 1682 km, 47.2° (Epoch: 06 December)

Event Time Altitude Azimuth Distance (km) Brightness Sun altitude
Rises 22:04:19 0° 165° (SSE) 4,629 9.8 -26.3°
Enters shadow 22:04:50 - 163° (SSE) 4,524 9.7 -26.4°
Maximum altitude 22:12:38 10° 121° (ESE) 3,694 - -28.1°
Drops below altitude 10° 22:12:48 10° 120° (ESE) 3,695 - -28.1°
Sets 22:21:03 0° 76° (ENE) 4,743 - -29.8°
